Showing default

COSMOS 2338, 24726

Orbit data source: Space-Track

COSMOS 2338, 24726 is a payload satellite owned by VKS (CIS) in LEO that was launched on Fri, 14 Feb 1997 UTC via a TSIKLON-3 launch vehicle from the Plesetsk Missile And Space Complex (PKMTR). Payload-class satellites include a variety of spacecraft equipped with specific instruments for various scientific and technological missions. These include communications satellites like Starlink; space stations such as the ISS; scientific satellites like the Hubble; Earth observation satellites from companies like Planet Labs, Umbra, and HawkEye 360; GPS; miniature CubeSats for education and research; and military/defense satellites.

Loading next visibility...
Identifier
24726, 1997-006B
Orbit
LEO
Country
Flag of CISCIS
Related business
Manufacturer
NPO PM
Mission
Non-operational Defense Communications
Bus & Motor
STRELA-3, Unknown motor
Mass
225 kg wet, 225 kg dry
Launch date (UTC)
1997-02-14 (29 years ago)
Launch vehicle
TSIKLON-3
Launch site
Plesetsk Missile And Space Complex (PKMTR)
Object type
Payload
Rocket body
Debris
Shape & HBR
Cyl + 1 Ant, 3.5 m
Radar Cross Section
1.583 m², Medium (>0.1 m² and < 1m²)

Expand to show TLE details & history
Last TLE update: 11 hours ago

TLE from 11 hours ago
0 COSMOS 2338
1 24726U 97006B   25307.99378292  .00000018  00000-0  39736-4 0  9990
2 24726  82.6031  46.6704 0004392 230.3651 129.7052 12.61388201322081
Epoch: 2025-11-03T23:51Z
TLE epoch observation values (Epoch: 2025-11-03T23:51:02.844Z)
Latitude
-0.00005°
Longitude
5.42136°
Altitude
1,422.137 km
Speed
7.149 km/s
True Right ascension
03h 06m 40s
True Declination
0° 00' 00"
Sunlit
Object was in full shadow at epoch
Visualization orbit readout
Latitude
Unknown
Longitude
Unknown
Altitude
Unknown
Speed
Unknown
Apparent Right ascension
Unknown
Apparent Declination
Unknown
Sunlit
N/A
Visualization observer readout
Local Sidereal Time
06:56:22
Azimuth
Unknown
Elevation
Unknown
Doppler factor
Unknown
Orbital elements
Apogee altitude
1,417.963 km
Perigee altitude
1,411.118 km
Semi-major axis
7,792.678 km
Eccentricity
0.00044
Inclination
82.6031°
RAAN
46.6704°
Arg. of periapsis
230.3651°
True anomaly
129.74391°
Mean anomaly
129.7052°
Eccentric anomaly
129.72455°
Mean motion
3.1551 °/min
Orbital period
114.1 mins
BSTAR
0.000039736
Loading maneuver chart data...
Computing Atmospheric mass density...
Loading historical data...
Loading historical data...
Loading historical data...
Loading historical data...
Loading historical data...
Loading historical data...
Loading historical data...

Documentation

Showing up to 5 results
|